Vicksburg, LA

7:27 AM CDT on June 26, 2017 (GMT -0500)
Vicksburg Tallulah Regional

Weather History for KTVR - December, 2011

Change the Weather History Date:

Wednesday, December 28, 2011

  Actual Average Record
Temperature  
Mean Temperature 43 °F 46 °F  
Max Temperature 56 °F 56 °F 78 °F (1988)
Min Temperature 30 °F 36 °F 19 °F (2010)
Degree Days  
Heating Degree Days 22 19  
Month to date heating degree days 475 477  
Since 1 July heating degree days 922 879  
Cooling Degree Days 0 0  
Month to date cooling degree days 5 0  
Year to date cooling degree days 2593 2225  
Moisture  
Dew Point 35 °F    
Average Humidity 69    
Maximum Humidity 100    
Minimum Humidity 38    
Precipitation  
Precipitation 0.00 in 0.15 in 2.32 in (1954)
Month to date precipitation 6.94 5.20  
Year to date precipitation 38.34 54.33  
Sea Level Pressure  
Sea Level Pressure 30.19 in    
Wind  
Wind Speed 2 mph (SSE)    
Max Wind Speed 8 mph    
Max Gust Speed 10 mph    
Visibility 6 miles    
Events Fog    
T = Trace of Precipitation, MM = Missing Value Source: NWS Daily Summary

Daily Weather History Graph

Daily Weather History Graph

Search for Another Location

Airport or City:

Trip Planner

Search our weather history database for the weather conditions in past years. The results will help you decide how hot, cold, wet, or windy it might be!

Date:

Astronomy

Dec. 28, 2011 Rise Set
Actual Time 7:04 AM CST 5:06 PM CST
Civil Twilight 6:37 AM CST 5:34 PM CST
Nautical Twilight 6:06 AM CST 6:04 PM CST
Astronomical Twilight 5:36 AM CST 6:34 PM CST
Moon 9:44 AM CST (12/28) 9:28 PM CST (12/28)
Length of Visible Light 10h 56m
Length of Day
10h 02m
Waxing Crescent, 18% of the Moon is Illuminated
Dec 28
Waxing Crescent
Jan 1
First Quarter
Jan 9
Full
Jan 16
Last Quarter
Jan 23
New

Hourly Weather History & Observations

Time (CST) Temp. Windchill Dew Point Humidity Pressure Visibility Wind Dir Wind Speed Gust Speed Precip Events Conditions
12:53 AM 37.0 °F 34.5 °F 35.1 °F 93% 30.22 in 10.0 mi WSW 3.5 mph - N/A   Clear
1:05 AM 35.6 °F - 33.8 °F 93% 30.20 in 2.0 mi Calm Calm - N/A   Clear
1:15 AM 35.6 °F - 33.8 °F 93% 30.20 in 10.0 mi Calm Calm - N/A   Clear
2:53 AM 35.1 °F - 34.0 °F 96% 30.22 in 10.0 mi Calm Calm - N/A   Clear
3:53 AM 33.1 °F - 33.1 °F 100% 30.21 in 8.0 mi Calm Calm - N/A   Clear
4:13 AM 33.8 °F - 32.0 °F 93% 30.18 in 1.8 mi Calm Calm - N/A   Clear
4:23 AM 33.8 °F - 32.0 °F 93% 30.18 in 0.8 mi Calm Calm - N/A   Clear
4:29 AM 33.8 °F 30.8 °F 32.0 °F 93% 30.18 in 2.0 mi East 3.5 mph - N/A   Clear
4:38 AM 33.8 °F 30.8 °F 32.0 °F 93% 30.17 in 10.0 mi East 3.5 mph - N/A   Clear
4:53 AM 34.0 °F 31.0 °F 33.1 °F 96% 30.19 in 9.0 mi SE 3.5 mph - N/A   Clear
5:24 AM 33.8 °F - 32.0 °F 93% 30.18 in 1.8 mi Calm Calm - N/A   Clear
5:53 AM 32.0 °F - 32.0 °F 100% 30.21 in 1.8 mi Calm Calm - N/A   Clear
6:08 AM 32.0 °F - 30.2 °F 93% 30.19 in 3.0 mi Calm Calm - N/A   Clear
6:12 AM 32.0 °F - 30.2 °F 93% 30.19 in 1.8 mi Calm Calm - N/A   Clear
6:22 AM 32.0 °F - 30.2 °F 93% 30.19 in 0.5 mi Calm Calm - N/A Fog Fog
6:53 AM 30.0 °F - 30.0 °F 100% 30.22 in 0.2 mi Calm Calm - N/A Fog Light Freezing Fog
7:09 AM 30.2 °F - 28.4 °F 93% 30.20 in 0.2 mi Calm Calm - N/A Fog Light Freezing Fog
7:39 AM 32.0 °F - 30.2 °F 93% 30.21 in 0.8 mi Calm Calm - N/A   Clear
7:48 AM 32.0 °F - 30.2 °F 93% 30.21 in 1.5 mi Calm Calm - N/A   Clear
7:53 AM 32.0 °F - 32.0 °F 100% 30.24 in 5.0 mi Calm Calm - N/A   Clear
8:15 AM 35.6 °F - 33.8 °F 93% 30.20 in 2.0 mi Calm Calm - N/A   Clear
8:24 AM 35.6 °F - 35.6 °F 100% 30.21 in 10.0 mi Calm Calm - N/A   Clear
8:40 AM 39.2 °F - 37.4 °F 93% 30.21 in 10.0 mi Calm Calm - N/A   Partly Cloudy
8:51 AM 39.2 °F - 37.4 °F 93% 30.21 in 1.8 mi Calm Calm - N/A   Scattered Clouds
8:53 AM 39.0 °F - 39.0 °F 100% 30.23 in 1.2 mi Calm Calm - N/A   Scattered Clouds
9:00 AM 39.2 °F - 39.2 °F 100% 30.21 in 1.5 mi Calm Calm - N/A   Mostly Cloudy
9:08 AM 39.2 °F - 39.2 °F 100% 30.21 in 2.0 mi Calm Calm - N/A   Mostly Cloudy
9:15 AM 39.2 °F - 39.2 °F 100% 30.22 in 0.8 mi Calm Calm - N/A   Mist
9:24 AM 42.8 °F - 41.0 °F 93% 30.23 in 2.5 mi Calm Calm - N/A   Mostly Cloudy
9:27 AM 42.8 °F - 42.8 °F 100% 30.23 in 7.0 mi Calm Calm - N/A   Scattered Clouds
9:53 AM 45.0 °F - 41.0 °F 86% 30.27 in 10.0 mi Calm Calm - N/A   Clear
10:53 AM 48.0 °F - 39.9 °F 74% 30.24 in 10.0 mi SE 4.6 mph - N/A   Clear
11:53 AM 51.1 °F - 39.0 °F 63% 30.21 in 10.0 mi South 6.9 mph - N/A   Clear
12:53 PM 53.1 °F - 37.0 °F 55% 30.17 in 10.0 mi South 6.9 mph - N/A   Clear
1:53 PM 55.0 °F - 32.0 °F 42% 30.15 in 10.0 mi SW 5.8 mph - N/A   Clear
2:53 PM 55.0 °F - 30.0 °F 38% 30.15 in 10.0 mi SW 3.5 mph - N/A   Clear
3:53 PM 53.1 °F - 36.0 °F 52% 30.14 in 10.0 mi Calm Calm - N/A   Clear
4:53 PM 51.1 °F - 34.0 °F 52% 30.14 in 10.0 mi Calm Calm - N/A   Clear
5:53 PM 42.1 °F - 37.9 °F 85% 30.14 in 10.0 mi Calm Calm - N/A   Clear
6:53 PM 39.9 °F - 37.9 °F 93% 30.16 in 10.0 mi Calm Calm - N/A   Clear
7:53 PM 37.9 °F 35.5 °F 36.0 °F 93% 30.15 in 10.0 mi SSE 3.5 mph - N/A   Clear
8:53 PM 37.9 °F 35.5 °F 36.0 °F 93% 30.14 in 10.0 mi East 3.5 mph - N/A   Clear
9:53 PM 35.1 °F - 35.1 °F 100% 30.15 in 10.0 mi Calm Calm - N/A   Clear
10:53 PM 35.1 °F - 35.1 °F 100% 30.14 in 10.0 mi Calm Calm - N/A   Clear
11:53 PM 35.1 °F - 34.0 °F 96% 30.14 in 10.0 mi Calm Calm - N/A   Clear